COSMOS 841

导读

COSMOS 841是苏联(CIS独联体前身)于1976年7月15日发射的卫星,隶属于苏联"宇宙(COSMOS)"卫星系列。该系列广泛涵盖军事侦察、技术试验与空间科学任务,统一命名方式模糊了卫星具体用途,是冷战时期苏联航天保密策略的典型体现。这颗卫星是冷战太空竞赛背景下,苏联航天活动持续推进的见证,大部分同系列卫星已退役成为空间碎片。

基本信息
目录编号:
9022
目录名称:
COSMOS 841
国际标识:
1976-069A
轨道中心:
EARTH
卫星名称:
COSMOS 841
卫星全名:
--
卫星状态:
在轨 (已飞行18231 天)
发射日期:
1976-07-15 UTC
国别 :
俄罗斯(独联体) (CIS)
星等 :
--
轨道信息
数据来源 国际轨道数据 AOE轨道数据
星历时间 2026-06-15T00:01:06+0800
6小时前
查看轨道信息
2026-06-12T06:00:00+0800
3天前
查看轨道信息
半长轴 7147.129km 7147.134km
偏心率 0.0012449 0.0012501
轨道倾角 74.044° 74.043°
近地点辐角 24.947° 30.472°
升交点赤经 305.644° 310.697°
平近点角 335.228° 146.849°
近地点 760.094km 760.062km
远地点 777.89km 777.932km
周期 100.221分钟 100.221分钟
每日圈数 14.368299 14.368285
详细信息
使用方式:
暂无
2D轨道图
3D轨道图
轨道高度分析图
轨道倾角分析图
轨道综合分析图
查看轨道综合分析图